Retour au catalogue

GHGSAT-C2

ActifScienceSSO
NORAD 47509·PAYLOAD·🇨🇦 Canada

Lancé Jan 24, 2021 depuis Cape Canaveral Space Force Station

Loading…

Prochains Passages (prochaines 24 heures)

TLE

FraisSource: Space-Track

Époque: Sep 14, 2026, 20:30 UTC

1 47509U 21006DA  26257.85428342  .00005825  00000-0  15442-3 0  9991
2 47509  97.2057 303.5998 0004642 183.1026 177.0191 15.38703352313630

Suivez GHGSAT-C2 en temps réel avec AllMySat

Download on the App Store